DW7957 Weather Reports


Display with metric or nautical units.
time (UTC)temp
F
wind
direction
speed
MPH
gust
MPH
rain 1hr
in
rain 24hr
in
rain mn
in
humidity
%
barometer
mb
20260502213732 64 254 6.0 13.0 0.00 0.00 0.00 31 1014.8
20260502212718 63 250 7.0 16.0 0.00 0.00 0.00 31 1015.0
20260502211729 64 229 4.0 10.0 0.00 0.00 0.00 31 1015.1
20260502210718 63 313 6.0 11.0 0.00 0.00 0.00 30 1015.2
20260502205743 63 310 5.0 11.0 0.00 0.00 0.00 30 1015.4
20260502204730 63 246 7.0 16.0 0.00 0.00 0.00 30 1015.6
20260502203733 63 249 5.0 12.0 0.00 0.00 0.00 31 1015.8
20260502202718 62 240 7.0 14.0 0.00 0.00 0.00 31 1015.9
20260502201723 62 226 5.0 11.0 0.00 0.00 0.00 30 1016.0
20260502200719 63 246 2.0 12.0 0.00 0.00 0.00 32 1016.1
20260502195717 62 259 4.0 10.0 0.00 0.00 0.00 32 1016.3
20260502194720 60 221 7.0 12.0 0.00 0.00 0.00 30 1016.4
20260502193754 61 232 5.0 12.0 0.00 0.00 0.00 32 1016.5
20260502192718 61 260 5.0 11.0 0.00 0.00 0.00 31 1016.8
20260502191720 60 255 5.0 14.0 0.00 0.00 0.00 32 1017.0
20260502190717 60 261 8.0 14.0 0.00 0.00 0.00 30 1017.1
20260502185718 60 226 5.0 16.0 0.00 0.00 0.00 33 1017.4
20260502184721 59 297 5.0 14.0 0.00 0.00 0.00 33 1017.4
20260502183718 59 207 4.0 15.0 0.00 0.00 0.00 31 1017.6
20260502182733 58 236 6.0 12.0 0.00 0.00 0.00 34 1017.9
20260502181718 58 234 8.0 15.0 0.00 0.00 0.00 33 1017.9
20260502180734 57 207 6.0 13.0 0.00 0.00 0.00 33 1018.2
20260502163728 55 311 3.0 12.0 0.00 0.00 0.00 37 1019.3
20260502162718 55 234 4.0 11.0 0.00 0.00 0.00 36 1019.4
20260502161733 54 229 4.0 16.0 0.00 0.00 0.00 38 1019.6
20260502160750 54 265 7.0 12.0 0.00 0.00 0.00 36 1019.6
20260502151734 53 237 4.0 13.0 0.00 0.00 0.00 39 1019.9
20260502150736 53 303 3.0 14.0 0.00 0.00 0.00 40 1019.8
20260502130739 44 252 3.0 7.0 0.00 0.00 0.00 57 1020.3
20260502123730 40 304 2.0 5.0 0.00 0.00 0.00 64 1020.2
20260502122723 39 315 3.0 5.0 0.00 0.00 0.00 65 1020.2
20260502121719 38 355 2.0 4.0 0.00 0.00 0.00 66 1020.2
20260502120716 36 360 2.0 4.0 0.00 0.00 0.00 68 1020.1
20260502115716 35 5 0.0 0.0 0.00 0.00 0.00 71 1020.1
20260502114726 33 5 0.0 0.0 0.00 0.00 0.00 74 1020.1
20260502113733 32 5 0.0 0.0 0.00 0.00 0.00 76 1019.9
20260502112734 32 5 0.0 0.0 0.00 0.00 0.00 76 1019.9
20260502111717 32 5 0.0 0.0 0.00 0.00 0.00 75 1019.9
20260502110718 32 5 0.0 0.0 0.00 0.00 0.00 75 1019.8
20260502105726 32 5 0.0 0.0 0.00 0.00 0.00 75 1019.9
20260502104716 32 5 0.0 0.0 0.00 0.00 0.00 75 1019.9
20260502103716 32 5 0.0 0.0 0.00 0.00 0.00 75 1019.9
20260502102717 32 5 0.0 0.0 0.00 0.00 0.00 74 1019.9
20260502101717 32 5 0.0 0.0 0.00 0.00 0.00 74 1019.8
20260502100731 32 5 0.0 0.0 0.00 0.00 0.00 74 1019.8
20260502090716 33 5 0.0 0.0 0.00 0.00 0.00 71 1019.8
20260502070732 36 5 0.0 0.0 0.00 0.00 0.00 64 1020.0
20260502065718 37 5 0.0 0.0 0.00 0.00 0.00 63 1020.1
20260502064716 37 5 0.0 0.0 0.00 0.00 0.00 62 1020.2
20260502063717 38 5 0.0 0.0 0.00 0.00 0.00 61 1020.2
20260502062716 38 5 0.0 0.0 0.00 0.00 0.00 61 1020.2
20260502061716 37 5 0.0 0.0 0.00 0.00 0.00 61 1020.3
20260502060722 38 5 0.0 0.0 0.00 0.00 0.00 61 1020.3
20260502055718 38 5 0.0 0.0 0.00 0.00 0.00 61 1020.2
20260502054735 38 5 0.0 0.0 0.00 0.00 0.00 61 1020.2
20260502053722 38 5 0.0 0.0 0.00 0.00 0.00 60 1020.1
20260502052723 38 5 0.0 0.0 0.00 0.00 0.00 59 1020.2
20260502051755 39 5 0.0 0.0 0.00 0.00 0.00 58 1020.2
20260502050724 39 5 0.0 0.0 0.00 0.00 0.00 57 1020.2
20260502045721 40 5 0.0 0.0 0.00 0.00 0.00 57 1020.1
20260502044718 40 5 0.0 0.0 0.00 0.00 0.00 55 1020.1
20260502043733 40 5 0.0 0.0 0.00 0.00 0.00 55 1020.1
20260502042743 41 5 0.0 0.0 0.00 0.00 0.00 54 1020.1
20260502041737 41 5 0.0 0.0 0.00 0.00 0.00 55 1020.2
20260502040732 41 5 0.0 0.0 0.00 0.00 0.00 56 1020.1
20260502035735 41 5 0.0 0.0 0.00 0.00 0.00 57 1020.1
20260502034734 41 5 0.0 0.0 0.00 0.00 0.00 55 1020.1
20260502033717 41 5 0.0 0.0 0.00 0.00 0.00 55 1020.1
20260502032736 42 5 0.0 0.0 0.00 0.00 0.00 53 1020.2
20260502031735 43 5 0.0 0.0 0.00 0.00 0.00 52 1020.2
20260502030719 44 5 0.0 0.0 0.00 0.00 0.00 50 1020.1
20260502025716 44 5 0.0 0.0 0.00 0.00 0.00 47 1020.0
20260502024716 45 5 0.0 0.0 0.00 0.00 0.00 46 1020.0
20260502023757 45 5 0.0 2.0 0.00 0.00 0.00 45 1020.0
20260502022723 45 5 0.0 2.0 0.00 0.00 0.00 42 1019.9
20260502021732 45 5 1.0 2.0 0.00 0.00 0.00 42 1019.7
20260502020719 46 5 1.0 2.0 0.00 0.00 0.00 42 1019.8
20260502015723 46 5 1.0 4.0 0.00 0.00 0.00 42 1019.7
20260502014722 46 5 2.0 4.0 0.00 0.00 0.00 41 1019.5
20260502013717 47 5 2.0 5.0 0.00 0.00 0.00 39 1019.3
20260502012724 47 5 3.0 8.0 0.00 0.00 0.00 39 1019.3
20260502011722 48 342 3.0 6.0 0.00 0.00 0.00 38 1019.2
20260502010739 48 337 2.0 5.0 0.00 0.00 0.00 38 1019.2
20260502005719 49 327 3.0 14.0 0.00 0.00 0.00 36 1019.1
20260502004717 49 15 5.0 9.0 0.00 0.00 0.00 35 1019.1
20260502003734 49 330 2.0 8.0 0.00 0.00 0.00 35 1018.9
20260502002720 49 321 4.0 8.0 0.00 0.00 0.00 35 1018.9
20260502001756 49 340 5.0 10.0 0.00 0.00 0.00 35 1018.8
20260502000722 50 345 4.0 10.0 0.00 0.00 0.00 34 1018.8
20260501235736 51 336 3.0 9.0 0.00 0.00 0.00 33 1018.8
20260501234716 51 329 5.0 12.0 0.00 0.00 0.00 33 1018.7
20260501233724 51 313 4.0 11.0 0.00 0.00 0.00 33 1018.7
20260501232721 52 316 5.0 10.0 0.00 0.00 0.00 32 1018.7
20260501231716 52 348 6.0 12.0 0.00 0.00 0.00 32 1018.6
20260501230721 51 324 7.0 10.0 0.00 0.00 0.00 32 1018.6
20260501225728 52 315 6.0 13.0 0.00 0.00 0.00 32 1018.5
20260501224726 52 304 5.0 14.0 0.00 0.00 0.00 31 1018.6
20260501223732 52 316 8.0 13.0 0.00 0.00 0.00 31 1018.6
20260501222723 51 304 4.0 12.0 0.00 0.00 0.00 34 1018.6
20260501221721 51 346 3.0 10.0 0.00 0.00 0.00 33 1018.5
20260501220724 51 309 5.0 15.0 0.00 0.00 0.00 32 1018.5
20260501215722 52 315 6.0 11.0 0.00 0.00 0.00 33 1018.4
20260501214751 52 327 7.0 14.0 0.00 0.00 0.00 33 1018.4